Location: Unspecified
(42.3650°N, 71.1030°W)
Time: 15:47:15
(UTC+00:00)

S-56A Canister/Altair - Pass Details

Date: 28 June 2024
Orbit: 638 x 2487 km, 38.9° (Epoch: 20 July)

Event Time Altitude Azimuth Distance (km) Brightness Sun altitude
Rises 06:37:37 0° 282° (WNW) 5,197 11.6 -19.7°
Reaches altitude 10° 06:41:23 10° 271° (W) 4,449 11.1 -19.3°
Maximum altitude 06:51:24 28° 219° (SW) 3,636 10.3 -18.5°
Drops below altitude 10° 07:02:58 10° 168° (SSE) 5,138 11.3 -17.3°
Sets 07:07:49 0° 158° (SSE) 6,117 11.8 -16.9°
